KLNK

Lincoln Airport

Airport
ICAO code
KLNK
Summary
ICAO Region
NAM
ICAO Territory
Location

Lincoln, Nebraska,

Coordinates
40° 50' 49" N , 96° 45' 19" W
KCC
Airport LOS
Parallel Runway Operation
Metar
Observation
KLNK 310854Z AUTO 20024G34KT 10SM CLR 18/14 A2934 RMK AO2 PK WND 19042/0837 SLP923 T01830144 56037
Station
Lincoln, Lincoln Municipal Airport
Date/Time
2023-03-31 08:54:00
Wind direction
200°
Wind speed
24 kts
Lowest cloud amount
n/a
Temperature
18.3°C
Dew point
14.4°C
Humidity
78%
Weather condition
n/a

Description

Lincoln Airport, formerly known as Lincoln Municipal Airport, is a joint public/military (ANG) use airport located 7 km northwest of the central business district of Lincoln, which is located in Lancaster County, Nebraska.

Climatology

Humid continental climate (Köppen climate classification Dfa) - characterized by four seasons: cold, windy, snowy winters, mild springs, hot, humid summers, and crisp and relatively short autumns. Precipitation reaches its lowest in January and February and peaks in summer and latter half of spring.

Runways

Designator Length Width Surface Rops
17/35 1646 30 PEM Yes/Yes
14/32 2636 46 PEM Yes/Yes
18/36 3932 61 PEM Yes/Yes

Airport map

Aerial View

SKYbrary Partners:

Safety knowledge contributed by: